Location: Newark
(48.0000°N, 67.0000°E)
Time: 05:20:38
(UTC+00:00)

DUCHIFAT 1 - Pass Details

Date: 09 April 2020
Orbit: 586 x 604 km, 97.9° (Epoch: 27 May)

Event Time Altitude Azimuth Distance (km) Brightness Sun altitude
Rises 20:12:50 0° 21° (NNE) 2,835 ? -33.3°
Reaches altitude 10° 20:15:11 10° 31° (NNE) 1,926 ? -33.3°
Enters shadow 20:16:37 19° 44° (NE) 1,429 ? -33.2°
